STARLINK-5147 (53985 NORAD) Tracking and Keplerian Element Data

This shows tracking and keplerian element data for the satellite.

Feedback or suggestion? Click here.




ElementValue
Catalog53985
NameSTARLINK-5147
Epoch Orbit765
Epoch Day325.25001157
Epoch Year2022
RAAN223.9103
Inclination53.2163
Eccentricity9.14E-05
Argument of Perigee73.2889
Mean Anonmoly245.2143
Mean Motion15.49839457
Decay Rate0.00032883
L11 53985U 22125X 22325.25001157 .00032883 00000+0 58582-3 0 9991
L22 53985 53.2163 223.9103 0000914 73.2889 245.2143 15.49839457 7657



Live tracking and technical data element details for STARLINK-5147 (NORAD 53985). STARLINK-5147 can be tracked NOW for your location showing map with azimuth and elevation plus other details from your city location.







IsCatalogInMostPopularTable: catalog: 53985, numindb: 3
Update: records affected: 1



GetName: 53985 STARLINK-5147

Hit Count: updated at: Fri, 09 Dec 2022 19:29:02 GMT